Tracking 26218 objects as of 27-Sep-2022
HD Live streaming from Space Station
objects crossing your sky now

STARLINK-4679

Track STARLINK-4679 now!
10-day predictions
STARLINK-4679 is classified as:


NORAD ID: 53782
Int'l Code: 2022-111K
Perigee: 356.3 km
Apogee: 357.8 km
Inclination: 53.2 °
Period: 91.5 minutes
Semi major axis: 6728 km
RCS: Unknown
Launch date: September 11, 2022
Source: United States (US)
Launch site: AIR FORCE EASTERN TEST RANGE (AFETR)
aabbcc
Your satellite tracking list
Your tracking list is empty




NASA's NSSDC Master Catalog

Two Line Element Set (TLE):
1 53782U 22111K   22270.58334491  .00079422  00000-0  56619-3 0  9996
2 53782  53.2178 185.3248 0001159 133.6924  37.7142 15.73149544  1309
Source of the keplerian elements: AFSPC